KMNV Weather Reports


time (UTC)temp
C
wind
direction
speed
KPH
gust
KPH
rain 1hr
cm
rain 24hr
cm
rain mn
cm
humidity
%
barometer
mb
20190522130654 25 230 12.9 0.0 0.00 0.00 0.00 6
20190522124537 23 0 11.3 0.0 0.00 0.00 0.00 6
20190522122537 21 0 0.0 0.0 0.00 0.00 0.00 8
20190522120532 21 0 0.0 0.0 0.00 0.00 0.00 8
20190522114529 18 0 0.0 0.0 0.00 0.00 0.00 9
20190522112515 17 0 0.0 0.0 0.00 0.00 0.00 9
20190522110529 17 0 0.0 0.0 0.00 0.00 0.00 10
20190522104524 17 0 0.0 0.0 0.00 0.00 0.00 10
20190522102529 17 0 0.0 0.0 0.00 0.00 0.00 9
20190522100523 17 0 0.0 0.0 0.00 0.00 0.00 10
20190522094522 17 0 0.0 0.0 0.00 0.00 0.00 10
20190522092522 17 0 0.0 0.0 0.00 0.00 0.00 10
20190522090527 17 0 0.0 0.0 0.00 0.00 0.00 10
20190522084520 17 0 0.0 0.0 0.00 0.00 0.00 10
20190522082531 17 0 0.0 0.0 0.00 0.00 0.00 10
20190522080519 17 0 0.0 0.0 0.00 0.00 0.00 10
20190522074528 17 0 0.0 0.0 0.00 0.00 0.00 10
20190522072519 17 0 0.0 0.0 0.00 0.00 0.00 10
20190522070529 17 0 0.0 0.0 0.00 0.00 0.00 10
20190522064523 17 0 0.0 0.0 0.00 0.00 0.00 9
20190522062528 17 0 0.0 0.0 0.00 0.00 0.00 9
20190522060532 17 0 0.0 0.0 0.00 0.00 0.00 9
20190522054523 17 0 0.0 0.0 0.00 0.00 0.00 9
20190522050525 18 0 0.0 0.0 0.00 0.00 0.00 9
20190522044523 17 0 0.0 0.0 0.00 0.00 0.00 9
20190522042531 18 0 0.0 0.0 0.00 0.00 0.00 9
20190522040525 21 0 0.0 0.0 0.00 0.00 0.00 7
20190522034523 21 0 0.0 0.0 0.00 0.00 0.00 7
20190522032524 20 0 0.0 0.0 0.00 0.00 0.00 8
20190522030527 20 0 0.0 0.0 0.00 0.00 0.00 8
20190522024529 21 0 0.0 0.0 0.00 0.00 0.00 8
20190522022515 21 0 0.0 0.0 0.00 0.00 0.00 8
20190522020530 22 0 0.0 0.0 0.00 0.00 0.00 7
20190522014533 22 0 0.0 0.0 0.00 0.00 0.00 7
20190522012531 22 0 0.0 0.0 0.00 0.00 0.00 8
20190522010523 23 0 0.0 0.0 0.00 0.00 0.00 7
20190522004541 25 0 0.0 0.0 0.00 0.00 0.00 6
20190522002530 27 0 0.0 0.0 0.00 0.00 0.00 6
20190522000531 27 0 0.0 0.0 0.00 0.00 0.00 5
20190521234559 28 0 0.0 0.0 0.00 0.00 0.00 4
20190521232522 28 260 8.0 0.0 0.00 0.00 0.00 4
20190521230528 28 200 4.8 0.0 0.00 0.00 0.00 4
20190521224523 30 0 0.0 0.0 0.00 0.00 0.00 4
20190521222524 30 0 8.0 0.0 0.00 0.00 0.00 4
20190521220541 30 310 8.0 0.0 0.00 0.00 0.00 4
20190521214520 30 0 8.0 0.0 0.00 0.00 0.00 4
20190521212525 30 310 9.7 0.0 0.00 0.00 0.00 4
20190521210525 30 0 8.0 0.0 0.00 0.00 0.00 4
20190521204520 30 0 8.0 0.0 0.00 0.00 0.00 4
20190521202525 30 0 9.7 19.3 0.00 0.00 0.00 4
20190521200523 30 240 12.9 0.0 0.00 0.00 0.00 4
20190521194525 30 240 12.9 0.0 0.00 0.00 0.00 4
20190521192529 28 260 4.8 0.0 0.00 0.00 0.00 4
20190521190530 28 220 12.9 0.0 0.00 0.00 0.00 4
20190521184522 28 0 0.0 0.0 0.00 0.00 0.00 4
20190521182527 28 260 9.7 0.0 0.00 0.00 0.00 4
20190521180526 27 0 0.0 0.0 0.00 0.00 0.00 4
20190521174522 27 0 0.0 0.0 0.00 0.00 0.00 4
20190521172519 27 150 11.3 0.0 0.00 0.00 0.00 4
20190521170908 27 230 8.0 0.0 0.00 0.00 0.00 4
20190521164534 27 130 9.7 0.0 0.00 0.00 0.00 4
20190521162527 26 0 4.8 0.0 0.00 0.00 0.00 5
20190521160524 26 0 0.0 0.0 0.00 0.00 0.00 5
20190521154524 25 0 4.8 0.0 0.00 0.00 0.00 5
20190521152526 23 0 0.0 0.0 0.00 0.00 0.00 5
20190521150525 22 0 0.0 0.0 0.00 0.00 0.00 6
20190521144526 22 0 0.0 0.0 0.00 0.00 0.00 6
20190521142522 22 0 0.0 0.0 0.00 0.00 0.00 6
20190521140520 22 0 4.8 0.0 0.00 0.00 0.00 6
20190521134526 21 0 0.0 0.0 0.00 0.00 0.00 6
20190521132516 20 0 4.8 0.0 0.00 0.00 0.00 7